Grayling, MI

1:04 PM EDT on July 28, 2017 (GMT -0400)
Grayling

Weather History for KGOV - November, 2011

Change the Weather History Date:

Friday, November 4, 2011

  Actual Average (KHTL) Record (KHTL)
Temperature  
Mean Temperature 32 °F -  
Max Temperature 46 °F 45 °F 72 °F (2015)
Min Temperature 19 °F 31 °F 9 °F (1951)
Degree Days  
Heating Degree Days 32    
Moisture  
Dew Point 26 °F    
Average Humidity 83    
Maximum Humidity 100    
Minimum Humidity 46    
Precipitation  
Precipitation 0.00 in - - ()
Sea Level Pressure  
Sea Level Pressure 30.30 in    
Wind  
Wind Speed 0 mph (ENE)    
Max Wind Speed 6 mph    
Max Gust Speed -    
Visibility 10 miles    
Events      
Averages and records for this station are not official NWS values.
T = Trace of Precipitation, MM = Missing Value Source: NWS Daily Summary

Daily Weather History Graph

Daily Weather History Graph

Search for Another Location

Airport or City:

Trip Planner

Search our weather history database for the weather conditions in past years. The results will help you decide how hot, cold, wet, or windy it might be!

Date:

Astronomy

Nov. 04, 2011 Rise Set
Actual Time 8:20 AM EDT 6:23 PM EDT
Civil Twilight 7:49 AM EDT 6:54 PM EDT
Nautical Twilight 7:15 AM EDT 7:29 PM EDT
Astronomical Twilight 6:41 AM EDT 8:03 PM EDT
Moon 3:27 PM EDT (11/4) 2:17 AM EDT (11/4)
Length of Visible Light 11h 04m
Length of Day
10h 03m
Waxing Gibbous, 69% of the Moon is Illuminated
Nov 4
Waxing Gibbous
Nov 10
Full
Nov 18
Last Quarter
Nov 25
New
Dec 2
First Quarter

Hourly Weather History & Observations

Time (EDT) Temp. Windchill Dew Point Humidity Pressure Visibility Wind Dir Wind Speed Gust Speed Precip Events Conditions
12:15 AM 26.6 °F - 26.6 °F 100% 30.21 in 1.8 mi Calm Calm - N/A   Mist
12:54 AM 24.8 °F - 24.8 °F 100% 30.23 in 7.0 mi Calm Calm - N/A   Clear
1:15 AM 24.8 °F - 24.8 °F 100% 30.23 in 10.0 mi Calm Calm - N/A   Clear
1:35 AM 23.0 °F - 23.0 °F 100% 30.23 in 10.0 mi Calm Calm - N/A   Clear
1:54 AM 26.6 °F - 26.6 °F 100% 30.24 in 10.0 mi Calm Calm - N/A   Clear
2:15 AM 24.8 °F - 24.8 °F 100% 30.23 in 10.0 mi Calm Calm - N/A   Clear
2:34 AM 23.0 °F - 23.0 °F 100% 30.24 in 7.0 mi Calm Calm - N/A   Clear
2:54 AM 21.2 °F - 21.2 °F 100% 30.24 in 10.0 mi Calm Calm - N/A   Clear
3:15 AM 21.2 °F - 19.4 °F 93% 30.24 in 10.0 mi Calm Calm - N/A   Clear
3:34 AM 21.2 °F - 21.2 °F 100% 30.24 in 10.0 mi Calm Calm - N/A   Clear
3:55 AM 21.2 °F - 19.4 °F 93% 30.24 in 10.0 mi Calm Calm - N/A   Clear
4:15 AM 19.4 °F - 19.4 °F 100% 30.24 in 10.0 mi Calm Calm - N/A   Clear
4:34 AM 21.2 °F - 19.4 °F 93% 30.24 in 10.0 mi Calm Calm - N/A   Clear
5:14 AM 21.2 °F - 19.4 °F 93% 30.24 in 10.0 mi Calm Calm - N/A   Clear
5:35 AM 21.2 °F - 21.2 °F 100% 30.25 in 10.0 mi Calm Calm - N/A   Clear
5:55 AM 19.4 °F - 19.4 °F 100% 30.25 in 10.0 mi Calm Calm - N/A   Clear
6:14 AM 19.4 °F - 19.4 °F 100% 30.26 in 10.0 mi Calm Calm - N/A   Clear
6:35 AM 19.4 °F - 19.4 °F 100% 30.26 in 10.0 mi Calm Calm - N/A   Clear
6:55 AM 19.4 °F - 19.4 °F 100% 30.26 in 10.0 mi Calm Calm - N/A   Clear
7:14 AM 19.4 °F - 19.4 °F 100% 30.26 in 10.0 mi Calm Calm - N/A   Clear
7:35 AM 19.4 °F - 17.6 °F 93% 30.27 in 10.0 mi Calm Calm - N/A   Clear
7:55 AM 19.4 °F - 17.6 °F 93% 30.28 in 10.0 mi Calm Calm - N/A   Clear
8:14 AM 19.4 °F - 17.6 °F 93% 30.29 in 10.0 mi Calm Calm - N/A   Clear
8:35 AM 19.4 °F - 17.6 °F 93% 30.30 in 10.0 mi Calm Calm - N/A   Clear
8:54 AM 21.2 °F - 19.4 °F 93% 30.31 in 10.0 mi Calm Calm - N/A   Clear
9:14 AM 23.0 °F - 23.0 °F 100% 30.31 in 10.0 mi Calm Calm - N/A   Clear
9:35 AM 28.4 °F - 28.4 °F 100% 30.32 in 10.0 mi Calm Calm - N/A   Clear
9:54 AM 30.2 °F - 30.2 °F 100% 30.33 in 10.0 mi Calm Calm - N/A   Clear
10:15 AM 32.0 °F - 32.0 °F 100% 30.33 in 10.0 mi Calm Calm - N/A   Clear
10:35 AM 33.8 °F - 32.0 °F 93% 30.33 in 10.0 mi Calm Calm - N/A   Clear
10:54 AM 33.8 °F - 32.0 °F 93% 30.33 in 10.0 mi Calm Calm - N/A   Clear
11:35 AM 39.2 °F 37.0 °F 33.8 °F 81% 30.33 in 10.0 mi NNE 3.5 mph - N/A   Clear
11:54 AM 42.8 °F 39.3 °F 33.8 °F 70% 30.33 in 10.0 mi NNE 5.8 mph - N/A   Clear
12:15 PM 44.6 °F 43.1 °F 33.8 °F 66% 30.34 in 10.0 mi NNE 3.5 mph - N/A   Clear
12:34 PM 44.6 °F - 32.0 °F 61% 30.34 in 10.0 mi Calm Calm - N/A   Clear
12:54 PM 46.4 °F 45.2 °F 32.0 °F 57% 30.34 in 10.0 mi East 3.5 mph - N/A   Clear
1:15 PM 46.4 °F - 32.0 °F 57% 30.34 in 10.0 mi Calm Calm - N/A   Clear
1:54 PM 46.4 °F 45.2 °F 30.2 °F 53% 30.33 in 10.0 mi East 3.5 mph - N/A   Clear
2:15 PM 46.4 °F - 28.4 °F 50% 30.33 in 10.0 mi Calm Calm - N/A   Clear
2:34 PM 46.4 °F - 28.4 °F 50% 30.32 in 10.0 mi Calm Calm - N/A   Clear
2:55 PM 46.4 °F 44.3 °F 28.4 °F 50% 30.32 in 10.0 mi SSE 4.6 mph - N/A   Clear
3:34 PM 46.4 °F 44.3 °F 28.4 °F 50% 30.31 in 10.0 mi NE 4.6 mph - N/A   Clear
3:55 PM 46.4 °F - 26.6 °F 46% 30.32 in 10.0 mi Calm Calm - N/A   Clear
4:14 PM 46.4 °F - 26.6 °F 46% 30.32 in 10.0 mi Calm Calm - N/A   Clear
4:34 PM 46.4 °F - 26.6 °F 46% 30.32 in 10.0 mi Calm Calm - N/A   Clear
4:55 PM 46.4 °F 44.3 °F 26.6 °F 46% 30.32 in 10.0 mi East 4.6 mph - N/A   Clear
5:34 PM 46.4 °F 45.2 °F 28.4 °F 50% 30.31 in 10.0 mi East 3.5 mph - N/A   Clear
6:14 PM 42.8 °F 40.1 °F 28.4 °F 57% 30.31 in 10.0 mi East 4.6 mph - N/A   Clear
6:35 PM 39.2 °F 35.9 °F 28.4 °F 65% 30.31 in 10.0 mi East 4.6 mph - N/A   Clear
6:54 PM 37.4 °F - 28.4 °F 70% 30.32 in 10.0 mi Calm Calm - N/A   Clear
7:14 PM 35.6 °F - 28.4 °F 75% 30.32 in 10.0 mi Calm Calm - N/A   Clear
7:35 PM 33.8 °F - 30.2 °F 87% 30.33 in 10.0 mi Calm Calm - N/A   Clear
7:54 PM 32.0 °F - 28.4 °F 87% 30.33 in 10.0 mi Calm Calm - N/A   Clear
8:15 PM 32.0 °F - 30.2 °F 93% 30.33 in 10.0 mi Calm Calm - N/A   Clear
8:35 PM 30.2 °F - 28.4 °F 93% 30.33 in 10.0 mi Calm Calm - N/A   Clear
8:54 PM 28.4 °F - 26.6 °F 93% 30.33 in 10.0 mi Calm Calm - N/A   Clear
9:15 PM 28.4 °F - 26.6 °F 93% 30.33 in 10.0 mi Calm Calm - N/A   Clear
9:35 PM 28.4 °F - 26.6 °F 93% 30.34 in 10.0 mi Calm Calm - N/A   Clear
9:54 PM 28.4 °F - 26.6 °F 93% 30.34 in 10.0 mi Calm Calm - N/A   Clear
10:15 PM 28.4 °F - 26.6 °F 93% 30.34 in 10.0 mi Calm Calm - N/A   Clear
10:34 PM 28.4 °F - 26.6 °F 93% 30.34 in 10.0 mi Calm Calm - N/A   Clear
10:54 PM 28.4 °F - 26.6 °F 93% 30.34 in 10.0 mi Calm Calm - N/A   Clear
11:15 PM 28.4 °F - 26.6 °F 93% 30.34 in 10.0 mi Calm Calm - N/A   Clear
11:34 PM 26.6 °F - 24.8 °F 93% 30.34 in 10.0 mi Calm Calm - N/A   Clear
11:55 PM 26.6 °F - 26.6 °F 100% 30.34 in 10.0 mi Calm Calm - N/A   Clear